Home > Time Zones > World Clock > Weather > Canada > Ajax > Past weeks

Flag for Canada Weather past 2 weeks in Ajax, Ontario, Canada

Now
72 °F

Passing clouds.


Feels Like: 77 °F
Forecast: 56 / 72 °F
Wind: 13 mph from North

Location: Toronto Buttonville

Current Time: May 28, 2015 at 12:42:37 PM

Latest Report: May 28, 2015 at 12:00 PM


Visibility: 14 mi

Pressure: 30.23 "Hg

Humidity: 50%

Dew point: 52 °F

Location of AjaxLocation

Historic Weather in Ajax — Graph

°F

Ajax temperature yesterday

Maximum temperature yesterday: 82 °F (at 5:00 PM)
Minimum temperature yesterday: 64 °F (at 1:00 AM)
Average temperature yesterday: 73 °F

Past Weeks' High & Low Weather Summary

 TemperatureHumidityPressure
High82 °F (May 18, 2:00 PM)88% (May 16, 5:00 AM)30.49 "Hg (May 16, 5:00 AM)
Low37 °F (May 20, 6:00 AM)19% (May 23, 4:00 PM)29.83 "Hg (May 21, 5:00 PM)
Average61 °F55%30.10 "Hg
* Reported May 13 11:00 AM — May 28 11:00 AM, Ajax, Weather by CustomWeather, © 2015

Note: Actual official high and low records may vary slightly from our data, if they occured in-between our weather recording intervals... More about our weather records

Advertising

Ajax weather history for previous 24 hours

 ConditionsComfort  
Time TempWeatherWind HumidityBarometerVisibility
11:00 AM
Thu, May 28
70 °FPassing clouds.15 mph53%30.21 "Hg15 mi
10:00 AM66 °FPassing clouds.15 mph64%30.19 "Hg15 mi
9:00 AM63 °FPassing clouds.21 mph68%30.18 "Hg15 mi
8:00 AM61 °FPassing clouds.18 mph77%30.16 "Hg15 mi
7:00 AM59 °FOvercast.14 mph82%30.13 "Hg15 mi
6:00 AM57 °FOvercast.13 mph88%30.09 "Hg15 mi
5:47 AM57 °FOvercast.14 mph88%30.07 "Hg15 mi
5:00 AM59 °FPassing clouds.13 mph77%30.05 "Hg15 mi
4:00 AM61 °FPassing clouds.6 mph72%30.03 "Hg15 mi
3:00 AM61 °FPassing clouds.9 mph77%30.02 "Hg15 mi
2:00 AM64 °FPassing clouds.12 mph78%30.00 "Hg15 mi
1:00 AM68 °FPassing clouds.12 mph78%29.98 "Hg15 mi
12:00 AM68 °FPassing clouds.7 mph73%29.97 "Hg15 mi
11:00 PM
Wed, May 27
68 °FPassing clouds.8 mph73%29.96 "Hg15 mi
10:00 PM72 °FMild.9 mph65%29.94 "Hg15 mi
9:00 PM72 °FOvercast.12 mph65%29.94 "Hg15 mi
8:00 PM73 °FPartly sunny.14 mph57%29.94 "Hg12 mi
7:00 PM77 °FBroken clouds.13 mph47%29.93 "Hg15 mi
6:00 PM75 °FPartly sunny.10 mph57%29.93 "Hg15 mi
5:00 PM82 °FScattered showers. Scattered clouds.14 mph45%29.90 "Hg15 mi
4:00 PM81 °FScattered clouds.14 mph45%29.90 "Hg15 mi
3:00 PM79 °FScattered clouds.22 mph54%29.92 "Hg15 mi
2:49 PM79 °FScattered clouds.25 mph54%29.92 "Hg15 mi
2:00 PM79 °FScattered clouds.18 mph58%29.93 "Hg15 mi
1:00 PM79 °FScattered clouds.21 mph58%29.95 "Hg13 mi
12:00 PM77 °FBroken clouds.18 mph61%29.96 "Hg12 mi
Weather by CustomWeather, © 2015

See weather overviewHow to use our weather pages